Details for Ryanair at LIEE




Go Back


Latest METAR
Local Time

LIEE 220850Z 34013KT CAVOK 26/20 Q1019
22/09/2018, 11:22:20

Description
Results
Ryanair Logo
Number of Pilots based at LIEE
0 Pilots Based here
Number of Ryanair Flights Departed from LIEE
0 Flights Departed
Number of Ryanair Flights Arrived at LIEE
0 Flights Arrived
Number of Ryanair Schedules Departing from LIEE
42 Schedules
Number of Ryanair Schedules Arriving at LIEE
42 Schedules
Number of Ryanair Schedules Departing from LIEE availible today
16 Schedules Today
Number of Ryanair Schedules Arriving at LIEE availible today
16 Schedules Today
Average Landing Rate at LIEE
-428 fpm
Ryanair Average Landing Rate at LIEE
0 fpm
Total Fuel Purchased at LIEE by Ryanair
0.00 kgs / 0.00 lbs

Pilots Based at LIEE


Pilot ID
Pilot Name
Pilot Rank
No. of Flights
No. of Flying Hours
There are no pilots assigned to this hub!   Will you be the first?
Content